Date,TemperatureHighF,TemperatureAvgF,TemperatureLowF,DewpointHighF,DewpointAvgF,DewpointLowF,HumidityHigh,HumidityAvg,HumidityLow,PressureMaxIn,PressureMinIn,WindSpeedMaxMPH,WindSpeedAvgMPH,GustSpeedMaxMPH,PrecipitationSumIn
2013-2-1,22.5,17.7,11.6,14.0,9.5,4.9,83,70,57,30.39,29.84,10,5,23,0.00
2013-2-2,20.9,16.1,10.0,19.0,11.7,3.7,94,83,74,30.39,30.06,6,2,10,0.00
2013-2-3,27.2,21.5,18.0,23.2,17.9,12.1,94,86,70,30.06,29.86,6,2,11,0.05
2013-2-4,25.8,21.1,16.4,21.3,15.1,9.7,93,78,59,30.12,29.95,7,3,13,0.00
2013-2-5,29.4,25.8,23.0,26.8,23.3,20.9,95,90,81,30.00,29.90,3,0,8,0.02
2013-2-6,32.4,25.7,11.6,26.1,19.1,9.2,91,77,49,30.43,29.99,6,2,11,0.05
2013-2-7,36.5,23.5,9.3,24.3,17.1,7.2,92,78,57,30.48,30.20,3,1,10,0.03
2013-2-8,34.8,30.9,21.2,33.2,27.2,15.5,97,86,72,30.20,29.84,8,2,16,0.11
2013-2-9,32.2,22.1,13.0,18.5,14.5,10.5,90,73,49,30.49,30.12,6,3,15,0.00
2013-2-10,43.3,25.0,5.7,23.2,14.7,3.1,92,68,39,30.51,30.17,3,0,7,0.02
2013-2-11,60.1,41.7,32.7,44.2,31.8,21.8,98,71,39,30.18,29.66,11,4,20,0.13
2013-2-12,36.5,31.9,22.6,26.7,23.7,20.5,92,72,63,30.07,29.89,12,5,21,0.00
2013-2-13,41.3,28.6,18.0,31.6,24.8,16.3,97,86,60,30.02,29.74,2,0,5,0.00
2013-2-14,39.3,32.3,25.2,34.0,28.9,24.0,97,88,74,30.04,29.86,4,1,7,0.08
2013-2-15,41.0,34.7,28.4,33.9,27.9,24.9,98,77,59,30.08,29.95,8,2,15,0.03
2013-2-16,32.5,26.8,18.5,24.6,15.2,8.7,81,62,41,30.10,29.96,5,2,9,0.00
2013-2-17,24.5,18.0,13.9,13.5,9.7,6.5,83,70,51,30.30,29.95,8,4,21,0.00
2013-2-18,38.9,23.0,7.5,20.5,11.5,4.7,88,64,33,30.41,30.09,4,1,8,0.00
2013-2-19,40.0,31.4,23.1,37.6,27.3,15.0,96,85,66,30.09,29.68,10,3,18,0.28
2013-2-20,24.1,20.2,17.5,16.9,11.8,8.0,81,70,56,30.23,29.93,11,6,24,0.00
2013-2-21,29.4,23.0,14.1,17.8,14.6,11.4,89,71,57,30.43,30.27,9,3,14,0.00
2013-2-22,29.4,24.7,13.4,26.9,20.9,10.8,92,86,71,30.44,30.17,4,1,9,0.00
2013-2-23,39.9,32.6,28.3,34.3,29.6,26.3,96,89,79,30.18,29.92,2,0,8,0.03
2013-2-24,32.0,29.8,27.5,28.9,24.0,20.0,97,79,63,30.18,29.91,8,3,14,0.00
2013-2-25,43.4,34.4,20.7,26.3,23.1,18.7,92,65,43,30.28,30.20,4,1,6,0.00
2013-2-26,38.8,34.9,27.9,33.5,29.8,23.7,96,82,62,30.19,29.77,5,3,11,0.30
2013-2-27,41.6,35.6,32.5,38.2,34.1,31.7,98,94,84,29.77,29.65,4,1,13,0.49
2013-2-28,36.1,33.9,32.0,33.9,31.2,30.0,97,90,80,29.79,29.66,5,2,9,0.10